{"data":{"norad_id":64105,"intl_designator":"2025-110K","name":"STARLINK-33949","alt_names":[],"object_type":"PAYLOAD","status":"ACTIVE","operator":null,"country":"US","launch_date":"2025-05-23","launch_site_code":"AFWTR","launch_vehicle":null,"mission":null,"orbit_class":"UNKNOWN","rcs_meters":null,"size_class":null,"mass_kg":null,"dimensions":null,"purposes":["comms"],"wikipedia_slug":null,"has_3d_model":false,"image_url":null,"decayed_at":null,"tle_current":{"epoch":"2026-05-25T02:36:19.646208Z","epoch_age_seconds":59035,"freshness":"FRESH","line1":"1 64105U 25110K   26145.10856072  .00008704  00000+0  29197-3 0  9991","line2":"2 64105  53.1591  31.7287 0001104  86.3103 273.8025 15.31694682 57584","mean_motion":15.31694682,"eccentricity":0.0001104,"inclination_deg":53.1591,"raan_deg":31.7287,"arg_perigee_deg":86.3103,"mean_anomaly_deg":273.8025,"bstar":0.00029197,"rev_number":5758,"period_min":94.013514372181,"perigee_km":469.99973018237,"apogee_km":471.5119657232,"semimajor_km":6848.8928479528,"source":"CELESTRAK","updated_at":"2026-05-25T13:38:20.265378Z"}}}